User: anonymous   Login
Location: Ostrava
(49.8330°N, 18.2830°E)
Time: 10:52:24
(UTC+01:00)
Language:

Cosmos 2221 - Orbit

View from above orbital plane
View from above orbital plane
View from above satellite
View from above satellite

Ground track
Ground track

The orbit data is extracted from the following two-line orbital elements,

1 22236U 92080A   14302.93871407  .00002242  00000-0  25230-3 0  2946
2 22236 082.5096 246.3435 0015656 310.6316 049.3538 14.86184560184454
Epoch (UTC): 29 October 2014 22:31:44
Eccentricity: 0.0015656
inclination: 82.5096°
perigee height: 599 km
apogee height: 621 km
right ascension of ascending node: 246.3435°
argument of perigee: 310.6316°
revolutions per day: 14.86184560
mean anomaly at epoch: 49.3538°
orbit number at epoch: 18445

The dashed part of the orbit path shows where the satellite is in the earth's shadow,  

DLR